Temp
31 32 32 34 33 32 32 32 31 31 30 30 30 30 31 29 28 28 28 28 27 26 26 25 24 24 23 23 22 21 20 20 20 21 20 19 18 20 20 20 20 19 18 18
32 31 33 33 32 32 32 32 32 31 30 30 31 31 31 31 29 28 28 28 28 27 27 26 25 25 24 24 22 21 22 22 22 19 21 20 20 19 20 21 21 20 19 19
31 33 33 32 32 32 33 32 32 31 31 31 30 31 31 30 29 29 28 28 28 28 28 27 26 26 25 24 23 22 23 23 21 21 21 22 22 22 21 19 18 20 20 19
32 33 32 32 32 32 32 32 32 31 31 31 31 31 32 31 30 30 29 28 29 28 27 27 27 26 26 25 25 23 22 24 23 22 21 22 21 21 20 21 20 19 19 20
31 32 31 31 32 32 32 32 32 31 31 32 32 32 32 31 31 31 31 30 29 29 28 27 27 27 26 26 25 24 23 24 23 24 23 23 23 21 21 20 20 19 19 20
32 32 33 33 33 32 32 32 32 32 32 31 32 32 34 33 32 32 32 31 30 29 28 28 27 27 27 26 25 24 24 24 24 24 24 23 23 22 20 19 19 19 19 18
31 31 32 32 32 32 32 32 30 30 30 31 32 31 33 34 33 33 32 30 29 28 28 27 26 26 26 25 24 23 25 25 24 24 24 24 23 21 19 19 18 18 17 19
30 30 32 32 32 32 32 33 32 28 29 31 32 31 34 34 32 30 30 29 28 28 28 27 27 26 25 24 23 22 25 24 25 24 24 22 21 19 18 18 19 18 18 19
30 30 33 33 33 33 32 31 34 32 33 31 33 33 35 35 34 32 31 29 28 27 26 25 25 25 24 24 23 23 24 24 24 24 23 21 20 19 18 19 20 19 19 19
31 29 32 32 32 32 32 33 31 32 29 30 32 31 32 33 34 32 32 30 28 26 25 25 25 24 24 24 24 23 21 21 23 23 21 19 18 19 19 19 19 19 19 18
32 31 31 32 31 31 31 31 32 33 32 31 31 33 35 34 34 32 33 30 27 26 25 24 24 23 23 23 23 22 21 20 22 21 20 19 19 19 19 19 19 18 18 18
31 31 30 30 33 33 33 33 33 32 31 32 31 32 36 35 33 31 32 29 27 26 25 24 23 22 22 21 20 20 22 23 22 21 21 20 20 20 20 20 20 20 19 19
31 30 30 30 32 31 31 33 33 34 34 31 31 33 35 34 32 29 31 28 26 25 24 24 23 21 20 20 20 21 22 21 21 20 19 21 21 21 21 19 17 18 18 18
30 31 31 30 31 32 30 32 32 33 32 32 33 33 34 35 33 31 29 27 26 24 23 23 22 20 20 19 20 21 18 18 19 17 18 21 21 20 17 16 16 16 17 17
31 30 31 31 32 32 32 32 32 32 33 32 33 33 34 35 35 33 30 28 26 24 23 22 21 18 18 18 18 17 17 18 17 17 17 18 18 17 18 17 16 17 15 14
31 30 31 30 32 31 31 32 33 33 32 32 32 33 35 35 31 30 30 28 26 25 24 22 19 18 19 18 18 17 18 17 16 16 18 20 19 18 18 18 17 16 15 14
30 31 29 30 31 31 30 32 32 32 33 33 32 34 35 34 34 32 29 27 27 26 24 22 21 20 20 19 18 17 17 16 16 18 20 19 17 16 17 17 16 16 16 15
30 30 30 31 30 28 32 34 34 33 33 33 33 34 34 33 31 30 29 28 27 26 24 23 22 21 20 19 18 18 17 16 16 16 16 17 17 17 17 16 15 15 15 14
31 31 30 29 30 31 31 31 31 31 32 34 33 33 33 31 29 30 28 28 27 26 24 23 22 21 19 19 18 17 16 16 16 15 16 16 16 16 16 15 14 14 14 14
30 30 30 30 29 29 32 32 29 31 31 32 30 31 31 30 32 32 27 27 27 25 24 23 22 21 19 19 18 17 16 16 15 15 16 16 16 14 14 14 14 14 14 13
28 29 29 29 29 31 31 29 27 29 30 28 27 27 27 29 30 27 26 26 27 25 24 23 21 20 19 18 18 17 16 16 15 15 15 14 14 13 14 14 14 13 11 12
28 28 29 28 28 28 28 27 28 27 27 26 25 25 25 25 25 26 26 26 26 25 23 22 21 20 18 18 18 17 16 16 15 15 14 14 14 12 14 14 13 11 11 10
26 28 28 29 29 27 26 28 27 26 25 25 24 24 24 25 26 26 25 25 24 23 22 22 21 19 18 18 18 16 16 15 15 14 14 14 14 14 13 11 11 11 11 12
24 22 26 26 29 29 27 25 25 24 24 23 24 24 24 24 25 25 24 24 24 23 21 21 20 19 18 17 17 17 17 16 15 15 14 13 13 12 11 11 12 12 12 12
23 22 25 26 27 26 26 23 23 23 23 23 23 23 23 24 24 24 24 23 23 22 21 20 18 17 17 16 18 18 19 18 17 15 12 12 12 12 11 12 11 12 11 11
24 25 25 26 24 24 24 23 22 22 22 22 22 22 23 22 23 22 22 22 21 19 18 18 17 17 17 17 19 18 16 19 16 13 12 13 12 12 12 11 11 11 11 10
Height
1495 1494 1492 1481 1487 1492 1491 1491 1492 1490 1491 1493 1488 1488 1486 1494 1498 1499 1503 1505 1507 1512 1516 1520 1524 1526 1530 1532 1535 1536 1538 1540 1540 1541 1543 1547 1546 1545 1545 1544 1543 1544 1543 1542
1492 1495 1482 1488 1491 1491 1488 1490 1489 1488 1490 1492 1484 1485 1481 1486 1491 1495 1498 1501 1504 1508 1512 1516 1519 1522 1526 1529 1532 1533 1534 1535 1536 1539 1538 1540 1541 1541 1540 1539 1538 1537 1537 1537
1489 1483 1482 1489 1488 1490 1481 1487 1489 1494 1488 1485 1487 1478 1479 1481 1486 1491 1494 1497 1500 1503 1507 1512 1516 1519 1523 1526 1528 1529 1530 1531 1532 1534 1533 1534 1535 1534 1533 1533 1533 1532 1532 1533
1484 1479 1486 1488 1489 1486 1489 1483 1486 1491 1492 1492 1483 1491 1474 1474 1481 1484 1487 1492 1495 1499 1503 1506 1510 1514 1518 1522 1525 1526 1526 1527 1527 1528 1528 1528 1528 1527 1527 1527 1529 1529 1528 1528
1485 1482 1485 1487 1485 1485 1488 1484 1486 1487 1487 1482 1481 1485 1472 1474 1477 1476 1479 1484 1488 1493 1498 1502 1505 1509 1514 1518 1520 1522 1521 1522 1523 1524 1524 1524 1524 1528 1526 1526 1524 1523 1526 1525
1480 1478 1478 1478 1478 1486 1487 1486 1485 1482 1480 1491 1483 1487 1466 1467 1471 1469 1471 1476 1481 1487 1493 1496 1501 1505 1509 1512 1516 1518 1516 1517 1518 1519 1520 1522 1523 1524 1523 1522 1520 1518 1520 1523
1480 1478 1478 1478 1479 1484 1486 1485 1499 1505 1498 1494 1478 1485 1469 1461 1464 1467 1471 1476 1479 1483 1488 1492 1496 1500 1503 1507 1509 1512 1512 1513 1514 1516 1518 1520 1522 1523 1521 1520 1517 1515 1518 1518
1484 1491 1474 1475 1476 1480 1481 1481 1490 1523 1510 1490 1476 1487 1465 1459 1467 1470 1472 1475 1478 1480 1484 1488 1492 1496 1499 1502 1504 1506 1508 1509 1511 1513 1515 1518 1521 1522 1521 1520 1517 1517 1519 1519
1477 1478 1465 1470 1472 1473 1479 1492 1470 1480 1473 1491 1472 1467 1456 1456 1458 1465 1469 1474 1477 1480 1483 1486 1489 1492 1495 1498 1501 1503 1504 1506 1508 1511 1514 1517 1519 1519 1518 1518 1517 1518 1518 1518
1468 1484 1466 1470 1472 1476 1476 1471 1486 1479 1506 1507 1477 1480 1474 1461 1459 1462 1465 1470 1476 1480 1483 1485 1489 1492 1495 1497 1499 1502 1503 1505 1508 1512 1514 1515 1516 1517 1517 1518 1518 1519 1519 1520
1466 1472 1467 1467 1471 1472 1478 1481 1476 1469 1476 1493 1494 1472 1448 1455 1456 1461 1462 1468 1475 1479 1483 1486 1489 1492 1494 1497 1498 1500 1503 1505 1508 1511 1513 1514 1515 1516 1518 1518 1519 1520 1520 1521
1465 1465 1472 1472 1460 1459 1459 1465 1464 1481 1485 1476 1484 1480 1445 1449 1456 1461 1462 1468 1474 1478 1482 1486 1488 1491 1493 1495 1496 1500 1502 1505 1508 1510 1512 1513 1515 1517 1518 1519 1519 1521 1520 1521
1461 1469 1475 1472 1464 1464 1466 1461 1459 1457 1457 1479 1485 1470 1445 1450 1455 1460 1461 1467 1472 1477 1480 1484 1488 1490 1492 1495 1497 1499 1503 1505 1508 1510 1512 1514 1516 1517 1519 1520 1521 1522 1522 1523
1457 1457 1462 1469 1464 1457 1470 1463 1459 1460 1469 1467 1463 1460 1449 1444 1449 1456 1460 1464 1468 1473 1476 1480 1485 1487 1491 1493 1496 1500 1503 1505 1508 1512 1513 1514 1515 1517 1519 1520 1520 1521 1521 1522
1457 1461 1454 1452 1449 1449 1451 1457 1456 1462 1458 1465 1455 1453 1448 1444 1444 1449 1455 1462 1466 1469 1474 1477 1481 1486 1490 1494 1497 1500 1503 1505 1508 1510 1512 1513 1515 1517 1518 1520 1521 1521 1522 1521
1451 1454 1448 1455 1447 1451 1454 1447 1445 1450 1453 1454 1456 1454 1443 1440 1447 1449 1451 1457 1462 1467 1471 1475 1478 1484 1489 1492 1495 1498 1500 1503 1507 1510 1510 1512 1514 1516 1517 1519 1520 1520 1520 1519
1449 1448 1456 1460 1448 1452 1463 1448 1449 1448 1448 1450 1457 1444 1438 1438 1440 1444 1448 1452 1456 1461 1467 1472 1476 1481 1486 1489 1492 1495 1500 1503 1506 1507 1509 1511 1514 1517 1517 1518 1518 1518 1518 1517
1448 1449 1447 1449 1454 1478 1437 1428 1435 1442 1443 1440 1439 1439 1437 1439 1443 1443 1443 1446 1451 1456 1461 1468 1473 1478 1484 1488 1493 1497 1500 1503 1506 1508 1509 1511 1513 1514 1515 1517 1517 1517 1515 1514
1442 1441 1449 1456 1454 1440 1439 1439 1443 1446 1442 1434 1437 1435 1438 1442 1443 1433 1437 1442 1447 1452 1457 1463 1469 1475 1481 1486 1491 1495 1499 1501 1503 1506 1508 1510 1512 1513 1513 1514 1514 1514 1513 1511
1442 1443 1444 1445 1456 1460 1433 1432 1441 1441 1449 1435 1439 1438 1440 1441 1438 1434 1438 1438 1443 1451 1457 1461 1467 1473 1479 1484 1488 1492 1496 1498 1502 1505 1507 1509 1510 1512 1512 1512 1512 1511 1511 1511
1447 1445 1447 1443 1449 1435 1431 1440 1443 1455 1450 1442 1443 1444 1443 1441 1439 1440 1441 1441 1442 1447 1453 1459 1464 1468 1474 1480 1486 1491 1495 1499 1501 1503 1505 1507 1509 1510 1511 1511 1510 1509 1510 1510
1446 1447 1444 1445 1452 1458 1438 1444 1446 1445 1444 1445 1446 1446 1445 1443 1440 1440 1441 1443 1444 1447 1451 1457 1462 1468 1474 1480 1485 1490 1493 1497 1500 1502 1505 1506 1508 1508 1507 1508 1509 1509 1508 1509
1455 1441 1446 1439 1438 1440 1442 1443 1444 1445 1446 1446 1446 1445 1444 1442 1439 1439 1440 1442 1446 1450 1453 1459 1463 1467 1471 1477 1483 1486 1490 1495 1499 1501 1504 1505 1506 1506 1506 1506 1508 1509 1507 1509
1448 1452 1446 1448 1437 1438 1442 1445 1446 1446 1446 1446 1445 1443 1442 1440 1438 1438 1440 1442 1446 1451 1454 1457 1462 1465 1468 1473 1477 1478 1484 1490 1495 1501 1503 1503 1503 1504 1506 1507 1508 1508 1507 1508
1451 1453 1448 1444 1441 1442 1444 1446 1445 1445 1445 1445 1443 1442 1440 1439 1437 1437 1439 1441 1444 1448 1452 1455 1457 1460 1466 1468 1471 1478 1480 1484 1488 1496 1501 1502 1503 1505 1505 1506 1508 1507 1505 1506
1449 1445 1446 1440 1445 1446 1444 1444 1445 1445 1444 1443 1442 1440 1439 1438 1438 1437 1438 1440 1443 1445 1446 1448 1455 1460 1465 1471 1469 1475 1477 1477 1482 1492 1498 1500 1502 1503 1505 1506 1504 1503 1502 1503
Wind_Speed
13 11 12 5 8 6 7 6 4 2 1 6 9 9 6 14 16 14 14 14 15 18 20 20 20 19 18 17 17 16 16 16 16 18 15 11 12 15 18 19 18 17 19 21
10 16 13 2 4 6 6 4 4 4 1 7 7 11 8 12 17 17 16 15 15 15 17 19 22 22 20 18 17 17 16 16 18 14 16 16 13 11 13 15 17 15 11 9
20 18 9 7 10 9 10 7 4 7 3 10 10 13 6 11 16 18 18 18 16 16 17 18 19 20 19 18 18 17 17 17 16 16 17 17 17 16 16 13 10 11 11 10
17 16 10 15 14 8 15 6 5 5 7 5 3 5 6 7 11 16 20 21 21 20 19 18 19 19 18 18 16 17 17 19 18 17 17 17 15 16 13 11 12 8 10 10
18 17 16 17 15 4 9 4 3 7 10 8 7 6 7 3 7 11 16 19 19 19 20 20 20 18 17 17 16 14 17 18 17 17 17 16 18 14 14 13 13 15 7 8
20 17 19 22 12 5 1 7 7 8 8 9 7 5 2 3 3 1 3 8 15 18 18 19 19 17 16 16 16 15 19 18 18 18 17 14 13 16 13 8 7 11 14 8
17 16 17 15 14 8 10 12 7 5 5 3 6 8 4 5 2 3 2 1 6 12 16 16 18 17 16 18 16 17 18 19 18 17 16 14 9 15 14 13 14 9 9 11
13 16 17 14 21 15 15 15 9 5 4 6 4 4 4 4 0 1 6 6 5 7 10 15 15 16 14 17 18 17 15 16 16 14 15 12 10 11 11 12 7 6 6 3
12 18 20 17 15 15 11 12 12 10 7 8 3 2 10 5 3 8 8 9 7 7 9 13 12 13 14 16 16 16 14 14 15 12 8 9 12 11 8 4 4 5 5 5
7 8 14 16 14 8 13 5 8 11 8 9 2 4 7 6 10 2 8 10 12 13 13 14 13 13 13 14 14 15 14 15 11 10 11 8 10 9 5 2 1 2 3 4
14 9 9 17 19 20 10 13 12 8 4 7 9 2 5 6 5 2 6 11 16 16 15 15 15 15 15 15 15 14 14 13 16 18 13 10 8 6 7 4 1 3 2 1
18 10 10 17 18 17 15 21 18 10 10 7 7 11 11 4 3 1 8 13 15 16 15 16 17 17 15 13 14 15 16 18 16 15 13 10 9 8 6 6 6 6 5 4
17 10 11 11 15 10 14 16 12 14 11 10 10 8 5 1 2 4 14 16 16 17 19 17 17 15 14 15 17 19 20 19 18 16 14 14 13 11 10 8 6 6 4 3
15 17 15 12 16 18 19 18 15 18 13 12 10 14 9 8 2 5 14 18 18 19 21 20 18 16 18 19 23 23 20 20 19 16 16 15 13 12 10 8 7 5 4 3
14 18 11 14 13 10 20 21 20 17 17 17 12 13 9 13 7 3 12 19 20 21 21 23 22 22 22 22 20 20 19 20 19 18 16 15 14 12 10 7 4 2 1 2
15 10 14 15 14 10 13 16 18 17 19 10 14 16 14 10 3 6 10 21 21 22 23 24 24 25 25 24 23 22 23 21 19 17 16 14 12 10 8 6 5 4 4 3
13 10 8 14 10 12 15 16 14 13 13 13 16 16 15 10 10 7 10 22 25 25 25 26 29 29 27 26 25 24 22 20 19 19 16 15 12 10 9 8 7 5 5 5
6 11 8 6 7 12 8 12 11 8 10 14 17 18 15 9 18 15 12 22 27 27 28 28 30 29 26 24 23 22 22 22 20 18 16 15 13 10 8 6 5 5 5 5
7 6 4 6 11 6 9 7 8 11 10 7 10 15 15 13 17 23 14 17 25 27 29 30 30 29 28 26 26 24 22 21 20 17 16 13 10 8 6 6 5 4 4 3
6 7 8 5 11 11 12 11 4 3 10 4 2 7 8 9 10 3 4 16 23 25 27 30 30 29 28 28 27 25 25 23 20 17 15 12 9 7 7 5 3 2 3 3
8 7 11 9 9 8 8 6 4 9 3 5 8 9 11 10 10 9 12 13 21 25 28 30 31 31 30 28 27 24 23 21 19 18 15 12 11 9 6 3 3 3 5 2
6 6 7 3 5 11 7 6 6 5 4 9 9 10 13 13 12 11 7 14 18 25 28 31 30 28 27 26 25 23 24 22 19 16 13 11 9 8 5 4 4 5 4 2
8 5 7 4 4 6 4 8 6 8 9 9 12 12 13 12 8 4 4 15 18 22 27 27 26 27 27 26 24 26 26 21 18 15 13 10 8 6 5 6 5 3 2 3
2 2 4 4 12 6 6 6 9 12 11 10 11 12 11 11 9 4 4 14 18 20 24 26 26 27 27 28 27 26 23 19 14 13 11 9 7 6 7 5 4 4 3 2
6 1 3 9 13 11 7 7 7 7 7 9 10 10 9 9 7 3 5 10 16 21 23 25 26 33 32 32 28 22 18 13 10 14 11 9 7 8 8 8 6 5 4 3
7 6 7 8 5 4 7 7 9 9 7 8 7 8 6 5 4 1 4 9 14 20 25 28 27 32 32 20 21 20 18 13 19 14 11 9 9 8 7 6 7 6 3 4
Wind_Direction
205 233 230 251 21 344 317 320 337 78 151 259 256 267 232 194 207 203 195 193 188 198 200 203 205 209 213 219 221 226 230 227 236 247 240 245 252 261 266 274 286 290 292 285
204 227 243 51 313 306 306 307 55 129 249 254 280 275 219 208 207 212 205 206 201 188 189 198 206 208 214 220 222 228 239 246 245 232 244 239 240 247 275 292 296 293 288 290
228 217 225 243 257 275 285 313 350 349 286 246 282 252 200 208 216 210 219 213 210 205 198 199 204 210 213 221 227 233 244 252 245 230 251 251 259 266 272 273 286 291 279 289
236 235 220 229 254 289 291 17 278 284 290 342 317 321 163 196 206 217 219 218 216 211 213 213 212 214 214 220 225 230 240 250 249 247 240 248 239 242 243 273 287 315 263 256
219 226 216 238 241 345 324 331 317 300 281 280 148 265 107 164 217 228 221 226 218 216 211 215 217 216 215 218 223 225 237 251 238 251 244 252 248 250 264 276 283 280 263 245
249 213 229 238 226 237 321 240 236 245 255 248 66 315 183 72 6 296 138 212 217 209 211 215 215 221 219 219 223 220 236 244 250 247 244 252 265 250 277 286 308 315 223 228
217 220 221 243 232 196 239 256 261 247 223 57 37 287 4 11 334 263 246 88 183 194 203 207 206 207 210 205 203 205 234 243 245 244 248 258 265 253 287 307 315 298 199 206
205 210 214 202 232 229 220 257 274 242 310 347 147 261 46 15 338 117 152 146 154 176 186 193 196 195 196 190 192 195 218 226 232 237 247 251 228 259 264 311 329 238 226 242
212 229 183 212 211 230 201 235 266 298 236 253 301 297 267 99 114 178 176 165 161 150 153 163 168 168 168 172 184 201 208 211 217 223 231 228 227 250 259 284 42 199 236 282
198 245 198 207 228 211 265 3 216 219 268 270 292 255 254 324 9 136 170 171 142 143 144 147 151 149 151 153 165 175 184 194 189 170 170 179 207 213 209 231 214 246 271 307
237 234 190 207 209 214 191 231 243 312 309 303 284 283 74 307 19 357 158 152 149 146 147 147 146 146 146 146 153 158 167 173 173 179 185 197 197 177 182 196 229 111 117 128
221 221 229 210 226 227 249 219 232 225 222 234 299 285 292 321 337 216 162 152 152 150 151 149 144 145 147 149 150 155 169 173 171 167 166 159 152 168 173 151 130 138 142 152
201 224 223 226 184 205 232 231 253 257 261 281 283 290 79 296 220 194 166 156 156 158 156 157 156 155 152 150 151 159 164 162 155 150 141 138 140 145 148 146 139 149 156 182
205 230 225 223 225 211 213 228 225 242 243 244 235 280 309 315 282 179 180 172 163 163 164 169 171 165 156 155 156 158 154 150 148 149 147 147 151 148 142 150 153 168 185 205
224 226 229 238 252 247 213 221 221 233 251 266 285 292 299 303 332 289 202 185 170 167 166 165 169 161 159 156 156 156 154 153 154 152 151 154 158 161 162 159 166 182 151 224
225 240 232 230 228 232 247 240 241 217 250 274 275 279 284 304 329 278 206 187 185 176 171 167 165 163 164 163 162 161 161 159 158 154 159 166 170 172 171 190 214 235 229 231
211 222 211 230 205 225 231 236 214 222 224 248 255 259 262 294 300 285 219 195 191 182 175 171 168 169 170 168 166 164 161 158 160 163 168 169 166 174 195 207 215 225 248 266
195 217 230 237 176 218 224 188 216 238 280 280 262 266 278 313 303 293 238 205 195 184 176 173 170 170 172 169 166 163 162 162 163 162 162 168 178 184 181 195 216 241 252 271
252 215 179 219 217 225 168 163 196 215 274 298 284 256 264 297 301 279 228 209 195 187 179 174 172 169 169 168 164 164 166 165 163 165 166 169 170 173 181 200 218 238 256 263
229 252 266 179 268 228 232 134 159 258 255 113 271 299 298 293 284 21 299 185 183 183 178 171 169 168 167 166 166 167 171 168 167 169 169 173 169 183 191 203 216 209 191 169
199 237 235 219 243 255 101 130 153 228 349 19 356 338 319 302 301 328 335 188 177 175 173 170 168 168 168 166 166 168 169 170 171 169 173 173 176 183 195 192 190 163 142 163
232 243 223 239 266 249 118 133 247 23 354 354 345 338 326 318 300 278 302 194 178 173 172 169 165 165 164 165 166 168 171 170 171 166 170 178 183 165 179 175 148 155 138 136
245 278 305 288 350 66 176 298 328 331 331 342 335 329 325 318 322 298 206 182 178 177 171 168 165 162 163 164 168 164 175 175 169 175 186 185 183 183 167 152 168 168 114 195
160 348 259 311 247 306 331 316 302 294 299 314 321 325 321 321 322 280 193 184 177 180 175 170 168 165 161 165 167 178 170 175 180 189 188 186 177 170 164 164 187 184 186 217
26 34 271 254 268 299 93 20 6 330 305 304 306 314 317 320 332 304 216 189 186 181 180 176 174 171 167 171 174 173 167 173 194 191 179 168 171 163 167 171 183 171 167 178
204 254 251 286 37 326 324 348 340 325 320 322 309 312 308 299 304 321 188 181 180 185 176 176 172 176 170 172 161 169 175 194 184 176 172 171 174 165 165 185 168 155 158 343